COSMOS 1014

Satellite information

Favourite Embed

Satellite Type and Status

PAYLOADIN ORBIT

Key statistics

Satellite COSMOS 1014 at a glance.

Uptime

17363

Days in orbit

Revolutions

≈ 12.4

Per day

Orbit

LEO

Low Earth Orbit

Inclination

74.0

Latest

Satellite identification and parameters

Extended collection of information and parameters for COSMOS 1014.

Object identification

Identified? True

Debris? False

Object name: COSMOS 1014

International designator: 1978-056B

Object number (NORAD): 10931

Object ID (CCSDS): 10931

Country: COMMONWEALTH OF INDEPENDENT STATES (CIS)

Current information (Y/N): Y

RCS size: MEDIUM

Orbital parameters

Period: 116.083 minutes

Inclination: 74.0263 deg

SMA: 7882.665 km

Apoapsis: 1530.712 km

Periapsis: 1478.347 km

RAAN: 251.0339 deg

Eccentricy: 0.0033215

Argument of periapsis: 179.6268 deg

Mean anomaly: 250.0951 deg

Mean motion: 12.40489796 rev/day

Mean motion (dot): -0.00000003 rev/day2

B* drag term: 0.000093547355 1/REarth

Two-line elements (TLE)

Creation date: Dec. 19, 2025, 2:08 a.m.

Reference frame: TEME

Reference center: EARTH

Epoch: Dec. 18, 2025, 8:59 p.m. UTC

TLE line 0: 0 COSMOS 1014

TLE line 1: 1 10931U 78056B 25352.87457547 -.00000003 00000-0 93547-4 0 9990

TLE line 2: 2 10931 74.0263 251.0339 0033215 179.6268 250.0951 12.40489796152453

Live tracking on map

Real-time ground track for satellite COSMOS 1014.

In-orbit conjunctions

A list of the most updated potential collisions computed for object COSMOS 1014.

Target Orbit TCA Probability of collision Miss distance Type
COSMOS 617 LEO 2025-06-11 02:03:59 0.0002782656 260.0 (m) PAYLOAD

Associated space launch

Military communications satellites

COSMOS 1014 was lifted into orbit during the mission ‘Kosmos-3M | Strela-1M 145-152’, on board a Kosmos-3M space rocket.

The launch took place on June 7, 1978, 10 p.m. from 132/1 (132L).

For more information about the launch, click the button.

Launch to space Kosmos-3M | Strela-1M 145-152
Kosmos-3M | Strela-1M 145-152

Agency: N/A

Status: Launch Successful

Launch date: June 7, 1978, 10 p.m. UTC

Rocket: Kosmos-3M

Launch pad: 132/1 (132L)

Location: Plesetsk Cosmodrome, Russian Federation

...

Latest news about this satellite

There are no fresh news available about this satellite. Check back as we update our databases every day.


Newsletter sign-up

Weekly statistics, charts and insights to help you stay on top of the space industry.